Location: Bella Coola
(52.3721°N, 126.7539°W)
Time: 09:31:58
(UTC-07:00)

ISS - Pass Details

Date: 26 May 2019
Orbit: 408 x 418 km, 51.6° (Epoch: 17 June)

Event Time Altitude Azimuth Distance (km) Brightness Sun altitude
Rises 22:50:26 0° 275° (W) 2,356 0.7 -9.1°
Reaches altitude 10° 22:52:31 10° 274° (W) 1,495 -0.4 -9.3°
Maximum altitude 22:55:52 72° 190° (S) 442 -3.8 -9.6°
Drops below altitude 10° 22:59:13 10° 105° (ESE) 1,499 -1.4 -9.9°
Enters shadow 22:59:29 - 105° (ESE) 1,606 -1.2 -9.9°
